Location: Linz
(48.3300°N, 14.3000°E)
Time: 02:50:07
(UTC+02:00)

BEESAT 3 - Visible Passes

Search period start: 21 August 2018 00:00
Search period end: 31 August 2018 00:00
Orbit: 504 x 512 km, 64.9° (Epoch: 20 August)

Date Brightness Start Highest point End Pass type
(mag) Time Alt. Az. Time Alt. Az. Time Alt. Az.
21 Aug ? 01:38:10 12° NW 01:39:37 14° NNW 01:41:45 10° N visible
21 Aug ? 04:57:30 10° N 04:58:12 10° NNE 04:58:53 10° NNE visible
21 Aug ? 23:45:03 27° NNE 23:45:03 27° NNE 23:46:59 10° NNE visible
22 Aug ? 01:19:50 12° NW 01:21:21 14° NNW 01:23:30 10° N visible
22 Aug ? 04:39:22 10° NNE 04:39:54 10° NNE 04:40:26 10° NNE visible
22 Aug ? 23:26:34 31° NNE 23:26:34 31° NNE 23:28:44 10° NNE visible
23 Aug ? 01:01:19 11° WNW 01:03:03 14° NNW 01:05:16 10° N visible
23 Aug ? 04:21:19 10° NNE 04:21:37 10° NNE 04:21:54 10° NNE visible
23 Aug ? 23:07:46 41° NNE 23:07:46 41° NNE 23:10:28 10° NE visible
24 Aug ? 00:42:30 10° WNW 00:44:46 15° NNW 00:47:02 10° N visible
24 Aug ? 22:48:19 70° NW 22:48:19 70° NW 22:52:12 10° NE visible
25 Aug ? 00:24:10 10° WNW 00:26:29 15° NNW 00:28:47 10° N visible
25 Aug ? 05:20:09 10° NNW 05:23:40 31° NE 05:27:09 10° ESE visible
25 Aug ? 20:51:05 10° SE 20:53:04 14° ESE 20:55:03 10° E visible
25 Aug ? 22:26:10 10° SW 22:30:01 72° NW 22:33:56 10° NE visible
26 Aug ? 00:05:50 10° WNW 00:08:11 15° NNW 00:10:33 10° N visible
26 Aug ? 05:01:53 10° NNW 05:05:23 31° NE 05:08:51 10° ESE visible
26 Aug ? 20:32:56 10° SE 20:34:49 13° ESE 20:36:42 10° E visible
26 Aug ? 22:07:52 10° SW 22:11:44 75° NW 22:15:39 10° NE visible
26 Aug ? 23:47:29 10° WNW 23:49:53 16° NNW 23:52:18 10° N visible
27 Aug ? 04:43:37 10° NNW 04:47:06 30° NE 04:50:33 10° ESE visible
27 Aug ? 21:49:35 10° SW 21:53:28 77° NW 21:57:22 10° NE visible
27 Aug ? 23:29:08 10° WNW 23:31:35 16° NNW 23:34:02 10° N visible
28 Aug ? 04:25:22 10° NNW 04:28:48 29° NE 04:32:14 10° ESE visible
28 Aug ? 21:31:18 10° SW 21:35:11 80° NW 21:39:06 10° NE visible
28 Aug ? 23:10:48 10° WNW 23:13:17 16° NNW 23:15:47 10° N visible
29 Aug ? 04:07:05 10° NNW 04:10:31 28° NE 04:13:55 10° ESE visible
29 Aug ? 21:13:01 10° SW 21:16:55 83° NW 21:20:49 10° NE visible
29 Aug ? 22:52:27 10° WNW 22:54:59 16° NNW 22:57:32 10° N visible
30 Aug ? 03:48:49 10° NNW 03:52:13 28° NE 03:55:36 10° E visible
30 Aug ? 05:26:09 10° NW 05:29:48 40° WSW 05:33:25 10° S visible
30 Aug ? 20:54:44 10° SW 20:58:38 85° NW 21:02:32 10° NE visible
30 Aug ? 22:34:06 10° WNW 22:36:41 17° NNW 22:39:16 10° N visible
